^^
Station Historical Data
Daily Summary for May 20, 2017 Units:  English    Metric   Both
« Previous Day
Next Day »
Daily Weekly Monthly Yearly Custom
  High: Low: Average:
Temperature: 66.6 °F 52.5 °F 58.2 °F
Dew Point: 51.3 °F 46.5 °F 49.1 °F
Humidity: 88 % 57 % 72 %
Wind Speed: 6.3 mph 0.0 mph 0.5 mph
Wind Gust: 13.8 mph - -
Wind:- - East
Pressure: 30.33 in 30.03 in -
Precipitation: 0.04 in    
Historical Graphs
 
 
Tabular Data for May 20, 2017
Time Temperature Dew Point Pressure Wind Wind Speed Wind Gust Humidity Rainfall Rate (Hourly) solar Conditions
00:03 66.6 °F 50.9 °F 30.03 in North 1.1 mph 9.2 mph 57 % 0.00 in 0.0 W/m2 CLR
00:08 66.5 °F 51.3 °F 30.04 in North 0.1 mph 3.5 mph 58 % 0.00 in 0.0 W/m2 CLR
00:13 66.4 °F 51.2 °F 30.04 in North 0.8 mph 5.8 mph 58 % 0.00 in 0.0 W/m2 CLR
00:18 66.1 °F 50.9 °F 30.04 in NNE 1.0 mph 5.8 mph 58 % 0.00 in 0.0 W/m2 CLR
00:23 66.0 °F 50.8 °F 30.04 in Calm   5.8 mph 58 % 0.00 in 0.0 W/m2 CLR
00:28 65.8 °F 51.1 °F 30.04 in Calm   3.5 mph 59 % 0.00 in 0.0 W/m2 CLR
00:33 65.7 °F 51.0 °F 30.04 in Calm   3.5 mph 59 % 0.00 in 0.0 W/m2 CLR
00:38 65.7 °F 51.0 °F 30.05 in Calm   3.5 mph 59 % 0.00 in 0.0 W/m2 CLR
00:43 65.5 °F 50.8 °F 30.04 in North 1.0 mph 5.8 mph 59 % 0.00 in 0.0 W/m2 CLR
00:48 65.3 °F 50.6 °F 30.04 in North 2.6 mph 8.1 mph 59 % 0.00 in 0.0 W/m2 CLR
00:53 65.2 °F 51.0 °F 30.05 in North 0.1 mph 8.1 mph 60 % 0.00 in 0.0 W/m2 CLR
00:58 64.9 °F 50.7 °F 30.05 in NNW 0.5 mph 6.9 mph 60 % 0.00 in 0.0 W/m2 CLR
01:03 64.7 °F 50.9 °F 30.05 in North 1.4 mph 5.8 mph 61 % 0.00 in 0.0 W/m2 CLR
01:08 64.6 °F 50.8 °F 30.06 in North 0.6 mph 5.8 mph 61 % 0.00 in 0.0 W/m2 CLR
01:14 64.3 °F 50.6 °F 30.06 in NW 1.6 mph 9.2 mph 61 % 0.00 in 0.0 W/m2 CLR
01:19 64.1 °F 50.8 °F 30.06 in NNE 3.7 mph 9.2 mph 62 % 0.00 in 0.0 W/m2 CLR
01:24 63.9 °F 50.6 °F 30.07 in NNW 1.0 mph 9.2 mph 62 % 0.00 in 0.0 W/m2 CLR
01:29 63.7 °F 50.9 °F 30.06 in NNW 0.9 mph 8.1 mph 63 % 0.00 in 0.0 W/m2 CLR
01:34 63.5 °F 50.7 °F 30.06 in NNE 1.6 mph 5.8 mph 63 % 0.00 in 0.0 W/m2 CLR
01:39 63.4 °F 50.6 °F 30.06 in NNW 0.4 mph 4.6 mph 63 % 0.00 in 0.0 W/m2 CLR
01:44 63.2 °F 50.4 °F 30.07 in North 0.9 mph 4.6 mph 63 % 0.00 in 0.0 W/m2 CLR
01:49 63.1 °F 50.3 °F 30.07 in North 1.2 mph 4.6 mph 63 % 0.00 in 0.0 W/m2 CLR
01:54 62.9 °F 50.1 °F 30.07 in North 0.2 mph 4.6 mph 63 % 0.00 in 0.0 W/m2 CLR
01:59 62.7 °F 49.9 °F 30.07 in North 1.7 mph 4.6 mph 63 % 0.00 in 0.0 W/m2 CLR
02:04 62.5 °F 49.7 °F 30.08 in North 0.7 mph 4.6 mph 63 % 0.00 in 0.0 W/m2 CLR
02:09 62.3 °F 50.0 °F 30.08 in NNE 0.5 mph 4.6 mph 64 % 0.00 in 0.0 W/m2 CLR
02:14 62.2 °F 49.9 °F 30.08 in NNE 2.5 mph 4.6 mph 64 % 0.00 in 0.0 W/m2 CLR
02:16 62.1 °F 49.8 °F 30.08 in Calm   4.6 mph 64 % 0.00 in 0.0 W/m2 CLR
02:21 62.0 °F 49.7 °F 30.08 in NNE 0.3 mph 4.6 mph 64 % 0.00 in 0.0 W/m2 CLR
02:26 61.9 °F 49.6 °F 30.08 in NNW 0.3 mph 4.6 mph 64 % 0.00 in 0.0 W/m2 CLR
02:31 61.8 °F 49.5 °F 30.08 in Calm   3.5 mph 64 % 0.00 in 0.0 W/m2 CLR
02:36 61.6 °F 49.7 °F 30.08 in Calm   3.5 mph 65 % 0.00 in 0.0 W/m2 CLR
02:41 61.5 °F 49.6 °F 30.08 in North 0.6 mph 3.5 mph 65 % 0.00 in 0.0 W/m2 CLR
02:46 61.4 °F 49.9 °F 30.08 in North 1.3 mph 3.5 mph 66 % 0.00 in 0.0 W/m2 CLR
02:51 61.3 °F 49.8 °F 30.08 in North 0.5 mph 3.5 mph 66 % 0.00 in 0.0 W/m2 CLR
02:56 61.1 °F 49.7 °F 30.08 in NNE 1.4 mph 3.5 mph 66 % 0.00 in 0.0 W/m2 CLR
03:01 61.0 °F 49.6 °F 30.08 in Calm   4.6 mph 66 % 0.00 in 0.0 W/m2 OVC
03:06 60.9 °F 49.5 °F 30.08 in North 0.4 mph 4.6 mph 66 % 0.00 in 0.0 W/m2 OVC
03:11 60.8 °F 49.8 °F 30.09 in NNE 0.6 mph 3.5 mph 67 % 0.00 in 0.0 W/m2 OVC
03:16 60.6 °F 49.6 °F 30.09 in Calm   3.5 mph 67 % 0.00 in 0.0 W/m2 OVC
03:21 60.4 °F 49.4 °F 30.09 in Calm   3.5 mph 67 % 0.00 in 0.0 W/m2 OVC
03:26 60.4 °F 49.8 °F 30.09 in Calm   2.3 mph 68 % 0.00 in 0.0 W/m2 OVC
03:31 60.4 °F 49.4 °F 30.10 in NNE 1.7 mph 4.6 mph 67 % 0.00 in 0.0 W/m2 OVC
03:36 60.3 °F 49.3 °F 30.10 in NNE 0.2 mph 4.6 mph 67 % 0.00 in 0.0 W/m2 OVC
03:41 60.3 °F 49.3 °F 30.10 in NNE 0.2 mph 4.6 mph 67 % 0.00 in 0.0 W/m2 OVC
03:46 60.1 °F 49.1 °F 30.10 in NE 0.7 mph 4.6 mph 67 % 0.00 in 0.0 W/m2 OVC
03:52 59.9 °F 48.9 °F 30.11 in NE 1.1 mph 4.6 mph 67 % 0.00 in 0.0 W/m2 OVC
03:57 59.7 °F 48.7 °F 30.11 in NNE 0.3 mph 3.5 mph 67 % 0.00 in 0.0 W/m2 OVC
04:02 59.5 °F 48.5 °F 30.10 in NNE 2.0 mph 8.1 mph 67 % 0.00 in 0.0 W/m2 SCT
04:07 59.4 °F 48.4 °F 30.10 in NE 1.7 mph 8.1 mph 67 % 0.00 in 0.0 W/m2 SCT
04:12 59.3 °F 48.7 °F 30.10 in North 1.2 mph 4.6 mph 68 % 0.00 in 0.0 W/m2 SCT
04:17 59.1 °F 48.5 °F 30.10 in NE 1.3 mph 4.6 mph 68 % 0.00 in 0.0 W/m2 SCT
04:22 58.9 °F 48.4 °F 30.11 in NNE 1.2 mph 4.6 mph 68 % 0.00 in 0.0 W/m2 SCT
04:27 58.8 °F 48.3 °F 30.10 in NNE 0.3 mph 5.8 mph 68 % 0.00 in 0.0 W/m2 SCT
04:32 58.6 °F 48.5 °F 30.10 in NE 0.1 mph 5.8 mph 69 % 0.00 in 0.0 W/m2 SCT
04:37 58.5 °F 48.4 °F 30.11 in Calm   3.5 mph 69 % 0.00 in 0.0 W/m2 SCT
04:42 58.4 °F 48.7 °F 30.11 in Calm   3.5 mph 70 % 0.00 in 0.0 W/m2 SCT
04:47 58.1 °F 48.4 °F 30.11 in Calm   1.2 mph 70 % 0.00 in 0.0 W/m2 SCT
04:52 58.0 °F 48.3 °F 30.11 in Calm   3.5 mph 70 % 0.00 in 0.0 W/m2 SCT
04:57 58.1 °F 48.7 °F 30.12 in Calm   3.5 mph 71 % 0.00 in 0.0 W/m2 SCT
05:02 58.2 °F 48.8 °F 30.12 in NNE 0.1 mph 3.5 mph 71 % 0.00 in 0.0 W/m2 SCT
05:07 58.2 °F 48.8 °F 30.13 in Calm   4.6 mph 71 % 0.00 in 0.0 W/m2 SCT
05:12 58.2 °F 48.8 °F 30.13 in Calm   4.6 mph 71 % 0.00 in 0.0 W/m2 SCT
05:17 58.2 °F 48.8 °F 30.13 in Calm   4.6 mph 71 % 0.00 in 0.0 W/m2 SCT
05:22 58.3 °F 48.9 °F 30.14 in NNE 0.8 mph 4.6 mph 71 % 0.00 in 0.0 W/m2 SCT
05:27 58.2 °F 48.8 °F 30.14 in NNE 1.1 mph 4.6 mph 71 % 0.00 in 0.0 W/m2 SCT
05:32 58.2 °F 48.8 °F 30.14 in NNE 0.4 mph 5.8 mph 71 % 0.00 in 0.0 W/m2 SCT
05:37 58.2 °F 48.8 °F 30.14 in NNE 0.9 mph 5.8 mph 71 % 0.00 in 0.0 W/m2 SCT
05:42 58.2 °F 49.2 °F 30.15 in NNE 0.5 mph 4.6 mph 72 % 0.00 in 0.0 W/m2 SCT
05:47 58.2 °F 49.2 °F 30.15 in NNW 1.4 mph 4.6 mph 72 % 0.00 in 0.0 W/m2 SCT
05:52 58.2 °F 49.2 °F 30.16 in NE 0.9 mph 4.6 mph 72 % 0.00 in 7.0 W/m2 SCT
05:57 58.2 °F 49.2 °F 30.16 in NNE 0.6 mph 6.9 mph 72 % 0.00 in 12.0 W/m2 SCT
06:02 58.2 °F 49.2 °F 30.16 in NNE 0.8 mph 11.5 mph 72 % 0.00 in 21.0 W/m2 OVC
06:07 58.2 °F 49.6 °F 30.17 in NNE 1.4 mph 11.5 mph 73 % 0.00 in 30.0 W/m2 OVC
06:12 58.2 °F 49.6 °F 30.17 in Calm   4.6 mph 73 % 0.00 in 26.0 W/m2 OVC
06:18 58.2 °F 49.6 °F 30.17 in North 0.3 mph 4.6 mph 73 % 0.00 in 21.0 W/m2 OVC
06:23 58.2 °F 49.6 °F 30.17 in NNE 1.5 mph 8.1 mph 73 % 0.00 in 18.0 W/m2 OVC
06:28 58.0 °F 49.4 °F 30.16 in NNE 4.3 mph 8.1 mph 73 % 0.00 in 19.0 W/m2 OVC
06:33 57.9 °F 48.9 °F 30.17 in North 2.8 mph 9.2 mph 72 % 0.00 in 21.0 W/m2 OVC
06:38 57.8 °F 48.5 °F 30.17 in Calm   9.2 mph 71 % 0.00 in 19.0 W/m2 OVC
06:43 57.6 °F 47.9 °F 30.17 in North 0.6 mph 8.1 mph 70 % 0.00 in 19.0 W/m2 OVC
06:48 57.6 °F 47.5 °F 30.18 in NNE 1.6 mph 11.5 mph 69 % 0.00 in 21.0 W/m2 OVC
06:53 57.6 °F 47.1 °F 30.18 in North 6.3 mph 13.8 mph 68 % 0.00 in 23.0 W/m2 OVC
06:58 57.6 °F 46.7 °F 30.19 in NNE 1.6 mph 13.8 mph 67 % 0.00 in 25.0 W/m2 OVC
07:03 57.7 °F 46.8 °F 30.19 in NNE 4.3 mph 11.5 mph 67 % 0.00 in 21.0 W/m2 OVC
07:08 57.7 °F 46.8 °F 30.19 in NNE 1.6 mph 10.4 mph 67 % 0.00 in 18.0 W/m2 OVC
07:13 57.8 °F 47.7 °F 30.19 in Calm   8.1 mph 69 % 0.00 in 18.0 W/m2 OVC
07:18 57.5 °F 47.8 °F 30.20 in ENE 4.2 mph 9.2 mph 70 % 0.00 in 21.0 W/m2 OVC
07:23 57.1 °F 48.2 °F 30.21 in NNE 3.6 mph 10.4 mph 72 % 0.00 in 25.0 W/m2 OVC
07:28 56.7 °F 48.1 °F 30.21 in NNE 4.8 mph 10.4 mph 73 % 0.00 in 28.0 W/m2 OVC
07:33 56.4 °F 47.9 °F 30.22 in Calm   10.4 mph 73 % 0.00 in 21.0 W/m2 OVC
07:38 56.2 °F 48.4 °F 30.22 in NNE 0.7 mph 10.4 mph 75 % 0.00 in 30.0 W/m2 OVC
07:43 56.0 °F 48.5 °F 30.22 in Calm   3.5 mph 76 % 0.00 in 42.0 W/m2 OVC
07:48 55.9 °F 48.8 °F 30.22 in NNE 1.1 mph 3.5 mph 77 % 0.00 in 37.0 W/m2 OVC
07:53 55.8 °F 49.0 °F 30.22 in North 0.8 mph 4.6 mph 78 % 0.01 in 56.0 W/m2 RA
07:58 55.8 °F 49.0 °F 30.23 in NNE 0.9 mph 4.6 mph 78 % 0.01 in 32.0 W/m2 RA
08:03 55.6 °F 48.8 °F 30.23 in NNE 0.5 mph 4.6 mph 78 % 0.01 in 35.0 W/m2 -RA
08:08 55.5 °F 49.1 °F 30.22 in NNE 2.2 mph 10.4 mph 79 % 0.01 in 46.0 W/m2 -RA
08:13 55.1 °F 49.4 °F 30.23 in NNE 2.5 mph 10.4 mph 81 % 0.02 in 58.0 W/m2 -RA
08:18 54.7 °F 49.3 °F 30.23 in NNE 3.8 mph 9.2 mph 82 % 0.02 in 58.0 W/m2 -RA
08:23 54.2 °F 48.8 °F 30.23 in North 2.2 mph 9.2 mph 82 % 0.02 in 72.0 W/m2 -RA
08:28 54.1 °F 49.1 °F 30.23 in NNE 0.8 mph 9.2 mph 83 % 0.02 in 53.0 W/m2 -RA
08:33 53.9 °F 48.9 °F 30.24 in NNE 2.8 mph 9.2 mph 83 % 0.02 in 47.0 W/m2 -RA
08:38 53.7 °F 49.0 °F 30.24 in Calm   9.2 mph 84 % 0.02 in 30.0 W/m2 -RA
08:43 53.8 °F 49.1 °F 30.25 in North 0.5 mph 9.2 mph 84 % 0.02 in 26.0 W/m2 -RA
08:48 53.7 °F 49.0 °F 30.25 in NNE 3.4 mph 8.1 mph 84 % 0.02 in 26.0 W/m2 -RA
08:53 53.8 °F 49.1 °F 30.25 in NNE 0.5 mph 8.1 mph 84 % 0.01 in 39.0 W/m2 -RA
08:58 53.9 °F 49.5 °F 30.26 in Calm   8.1 mph 85 % 0.01 in 32.0 W/m2 -RA
09:03 53.9 °F 49.5 °F 30.26 in North 0.1 mph 3.5 mph 85 % 0.01 in 39.0 W/m2 -RA
09:04 53.8 °F 49.4 °F 30.26 in North 0.1 mph 3.5 mph 85 % 0.01 in 39.0 W/m2 -RA
09:09 53.9 °F 49.5 °F 30.27 in North 0.5 mph 3.5 mph 85 % 0.01 in 42.0 W/m2 -RA
09:14 53.7 °F 49.3 °F 30.27 in NNE 0.5 mph 3.5 mph 85 % 0.01 in 67.0 W/m2 -RA
09:19 53.7 °F 49.6 °F 30.27 in NNE 0.4 mph 3.5 mph 86 % 0.01 in 69.0 W/m2 -RA
09:24 53.5 °F 49.4 °F 30.27 in North 0.9 mph 5.8 mph 86 % 0.01 in 83.0 W/m2 -RA
09:29 53.6 °F 49.8 °F 30.27 in NNE 3.0 mph 8.1 mph 87 % 0.02 in 98.0 W/m2 -RA
09:34 53.7 °F 49.9 °F 30.27 in Calm   8.1 mph 87 % 0.02 in 139.0 W/m2 -RA
09:39 53.6 °F 49.8 °F 30.27 in NE 0.1 mph 8.1 mph 87 % 0.02 in 151.0 W/m2 -RA
09:44 53.6 °F 50.1 °F 30.27 in NNE 0.3 mph 4.6 mph 88 % 0.02 in 141.0 W/m2 -RA
09:45 53.7 °F 50.2 °F 30.27 in NNE 1.0 mph 4.6 mph 88 % 0.02 in 132.0 W/m2 -RA
09:50 53.3 °F 49.5 °F 30.27 in NNE 1.2 mph 4.6 mph 87 % 0.02 in 149.0 W/m2 -RA
09:55 52.9 °F 49.1 °F 30.27 in NE 1.8 mph 9.2 mph 87 % 0.02 in 135.0 W/m2 -RA
10:00 52.8 °F 49.0 °F 30.27 in NNE 0.4 mph 9.2 mph 87 % 0.02 in 172.0 W/m2 -RA
10:05 52.8 °F 49.0 °F 30.27 in NNE 0.2 mph 9.2 mph 87 % 0.02 in 121.0 W/m2 -RA
10:10 52.9 °F 49.4 °F 30.28 in North 0.6 mph 4.6 mph 88 % 0.02 in 93.0 W/m2 -RA
10:15 52.9 °F 49.1 °F 30.28 in NNE 0.2 mph 4.6 mph 87 % 0.01 in 91.0 W/m2 -RA
10:20 53.0 °F 49.5 °F 30.28 in NNE 1.7 mph 4.6 mph 88 % 0.01 in 97.0 W/m2 -RA
10:25 53.0 °F 49.5 °F 30.28 in Calm   8.1 mph 88 % 0.01 in 100.0 W/m2 -RA
10:30 52.9 °F 49.4 °F 30.28 in NNE 1.5 mph 9.2 mph 88 % 0.00 in 123.0 W/m2 -RA
10:35 52.9 °F 49.4 °F 30.28 in NNE 0.4 mph 9.2 mph 88 % 0.00 in 151.0 W/m2 -RA
10:40 52.8 °F 49.0 °F 30.28 in NNE 0.9 mph 9.2 mph 87 % 0.00 in 155.0 W/m2 -RA
10:45 53.2 °F 49.4 °F 30.28 in South 1.6 mph 9.2 mph 87 % 0.00 in 169.0 W/m2 -RA
10:50 53.1 °F 49.0 °F 30.28 in Calm   10.4 mph 86 % 0.00 in 174.0 W/m2 -RA
10:55 53.2 °F 49.1 °F 30.28 in NNE 0.3 mph 10.4 mph 86 % 0.00 in 185.0 W/m2 -RA
11:00 53.4 °F 49.0 °F 30.28 in Calm   9.2 mph 85 % 0.00 in 181.0 W/m2 -RA
11:05 53.7 °F 49.0 °F 30.28 in East 0.1 mph 5.8 mph 84 % 0.00 in 169.0 W/m2 OVC
11:10 53.8 °F 48.8 °F 30.29 in Calm   4.6 mph 83 % 0.00 in 144.0 W/m2 OVC
11:15 53.8 °F 48.4 °F 30.29 in Calm   4.6 mph 82 % 0.00 in 160.0 W/m2 OVC
11:20 53.9 °F 48.2 °F 30.29 in Calm   8.1 mph 81 % 0.00 in 149.0 W/m2 OVC
11:26 54.1 °F 48.4 °F 30.29 in Calm   8.1 mph 81 % 0.00 in 176.0 W/m2 OVC
11:31 54.1 °F 48.1 °F 30.29 in Calm   4.6 mph 80 % 0.00 in 253.0 W/m2 OVC
11:36 54.8 °F 49.1 °F 30.29 in NNE 0.8 mph 4.6 mph 81 % 0.00 in 287.0 W/m2 OVC
11:41 54.7 °F 48.3 °F 30.30 in NNE 0.1 mph 4.6 mph 79 % 0.00 in 186.0 W/m2 OVC
11:46 54.3 °F 47.6 °F 30.30 in SE 0.6 mph 4.6 mph 78 % 0.00 in 155.0 W/m2 OVC
11:51 54.3 °F 47.2 °F 30.30 in Calm   2.3 mph 77 % 0.00 in 162.0 W/m2 OVC
11:56 54.6 °F 47.2 °F 30.30 in Calm   2.3 mph 76 % 0.00 in 197.0 W/m2 OVC
12:01 54.8 °F 47.4 °F 30.30 in Calm   1.2 mph 76 % 0.00 in 193.0 W/m2 OVC
12:06 54.9 °F 47.1 °F 30.30 in Calm   2.3 mph 75 % 0.00 in 188.0 W/m2 OVC
12:11 55.0 °F 46.9 °F 30.30 in Calm   2.3 mph 74 % 0.00 in 186.0 W/m2 OVC
12:12 55.1 °F 47.3 °F 30.30 in Calm   2.3 mph 75 % 0.00 in 200.0 W/m2 OVC
12:17 55.2 °F 47.1 °F 30.30 in Calm   1.2 mph 74 % 0.00 in 209.0 W/m2 OVC
12:22 55.4 °F 47.2 °F 30.29 in Calm     74 % 0.00 in 272.0 W/m2 OVC
12:27 55.8 °F 47.3 °F 30.29 in Calm   2.3 mph 73 % 0.00 in 281.0 W/m2 OVC
12:32 55.9 °F 47.4 °F 30.29 in Calm   2.3 mph 73 % 0.00 in 309.0 W/m2 OVC
12:37 56.3 °F 48.1 °F 30.30 in Calm   2.3 mph 74 % 0.00 in 338.0 W/m2 OVC
12:42 56.7 °F 47.4 °F 30.29 in Calm   2.3 mph 71 % 0.00 in 339.0 W/m2 OVC
12:47 56.9 °F 47.6 °F 30.30 in Calm   3.5 mph 71 % 0.00 in 297.0 W/m2 OVC
12:52 56.9 °F 47.2 °F 30.30 in Calm   3.5 mph 70 % 0.00 in 271.0 W/m2 OVC
12:57 57.2 °F 47.1 °F 30.30 in Calm   3.5 mph 69 % 0.00 in 274.0 W/m2 OVC
13:02 57.0 °F 46.9 °F 30.30 in Calm     69 % 0.00 in 225.0 W/m2 OVC
13:07 57.0 °F 46.9 °F 30.30 in Calm   1.2 mph 69 % 0.00 in 202.0 W/m2 OVC
13:12 57.2 °F 47.1 °F 30.30 in Calm   1.2 mph 69 % 0.00 in 214.0 W/m2 OVC
13:18 57.3 °F 46.8 °F 30.30 in Calm     68 % 0.00 in 185.0 W/m2 OVC
13:23 57.4 °F 47.3 °F 30.30 in Calm     69 % 0.00 in 158.0 W/m2 OVC
13:28 57.4 °F 46.5 °F 30.30 in Calm     67 % 0.00 in 155.0 W/m2 OVC
13:33 57.4 °F 46.5 °F 30.31 in Calm     67 % 0.00 in 153.0 W/m2 OVC
13:38 57.4 °F 46.5 °F 30.31 in Calm     67 % 0.00 in 146.0 W/m2 OVC
13:43 57.4 °F 46.5 °F 30.31 in Calm     67 % 0.00 in 139.0 W/m2 OVC
13:48 57.5 °F 47.0 °F 30.31 in Calm   3.5 mph 68 % 0.00 in 137.0 W/m2 OVC
13:53 57.8 °F 47.7 °F 30.31 in NNE 0.2 mph 3.5 mph 69 % 0.00 in 137.0 W/m2 OVC
13:58 57.7 °F 47.2 °F 30.31 in Calm   3.5 mph 68 % 0.00 in 151.0 W/m2 OVC
14:03 57.5 °F 47.0 °F 30.31 in Calm   3.5 mph 68 % 0.00 in 153.0 W/m2 OVC
14:08 57.8 °F 48.1 °F 30.31 in Calm     70 % 0.00 in 160.0 W/m2 OVC
14:13 57.9 °F 48.2 °F 30.31 in Calm     70 % 0.00 in 183.0 W/m2 OVC
14:18 57.8 °F 48.5 °F 30.31 in Calm     71 % 0.00 in 206.0 W/m2 OVC
14:23 57.8 °F 48.1 °F 30.31 in Calm     70 % 0.00 in 202.0 W/m2 OVC
14:28 57.9 °F 48.6 °F 30.31 in NE 0.3 mph 2.3 mph 71 % 0.00 in 204.0 W/m2 OVC
14:33 58.1 °F 48.4 °F 30.31 in Calm   2.3 mph 70 % 0.00 in 229.0 W/m2 OVC
14:38 58.2 °F 49.2 °F 30.31 in Calm   2.3 mph 72 % 0.00 in 267.0 W/m2 OVC
14:39 58.3 °F 49.3 °F 30.31 in Calm     72 % 0.00 in 276.0 W/m2 OVC
14:44 58.2 °F 48.8 °F 30.31 in Calm   2.3 mph 71 % 0.00 in 315.0 W/m2 OVC
14:49 58.1 °F 48.7 °F 30.31 in Calm   2.3 mph 71 % 0.00 in 336.0 W/m2 OVC
14:54 58.4 °F 49.0 °F 30.30 in Calm     71 % 0.00 in 403.0 W/m2 OVC
14:59 58.7 °F 49.3 °F 30.31 in NNE 0.2 mph 3.5 mph 71 % 0.00 in 401.0 W/m2 OVC
15:04 59.1 °F 48.9 °F 30.30 in North 0.8 mph 3.5 mph 69 % 0.00 in 404.0 W/m2 OVC
15:09 58.9 °F 48.7 °F 30.30 in NNE 0.2 mph 3.5 mph 69 % 0.00 in 452.0 W/m2 OVC
15:14 59.4 °F 48.8 °F 30.30 in Calm   3.5 mph 68 % 0.00 in 387.0 W/m2 OVC
15:19 59.4 °F 48.8 °F 30.30 in Calm   3.5 mph 68 % 0.00 in 496.0 W/m2 OVC
15:24 59.3 °F 48.7 °F 30.30 in Calm   2.3 mph 68 % 0.00 in 415.0 W/m2 OVC
15:29 59.6 °F 49.4 °F 30.30 in Calm   2.3 mph 69 % 0.00 in 592.0 W/m2 OVC
15:34 60.2 °F 49.2 °F 30.30 in Calm   4.6 mph 67 % 0.00 in 408.0 W/m2 OVC
15:39 59.8 °F 48.8 °F 30.30 in Calm   4.6 mph 67 % 0.00 in 339.0 W/m2 OVC
15:44 59.2 °F 48.2 °F 30.30 in Calm   4.6 mph 67 % 0.00 in 357.0 W/m2 OVC
15:49 59.4 °F 48.4 °F 30.30 in Calm   3.5 mph 67 % 0.00 in 350.0 W/m2 OVC
15:54 59.9 °F 49.3 °F 30.30 in Calm   1.2 mph 68 % 0.00 in 487.0 W/m2 OVC
16:00 59.7 °F 48.7 °F 30.30 in Calm   1.2 mph 67 % 0.00 in 334.0 W/m2 OVC
16:05 59.8 °F 48.4 °F 30.30 in Calm     66 % 0.00 in 323.0 W/m2 OVC
16:10 60.3 °F 48.9 °F 30.30 in NNW 0.1 mph 3.5 mph 66 % 0.00 in 392.0 W/m2 OVC
16:15 60.0 °F 48.6 °F 30.30 in Calm   3.5 mph 66 % 0.00 in 464.0 W/m2 OVC
16:20 60.5 °F 49.1 °F 30.30 in Calm     66 % 0.00 in 369.0 W/m2 OVC
16:25 60.5 °F 49.1 °F 30.30 in Calm   2.0 mph 66 % 0.00 in 427.0 W/m2 OVC
16:30 61.4 °F 49.9 °F 30.30 in NW 0.8 mph 4.6 mph 66 % 0.00 in 406.0 W/m2 OVC
16:35 61.5 °F 48.8 °F 30.30 in Calm   3.0 mph 63 % 0.00 in 350.0 W/m2 OVC
16:40 60.9 °F 48.6 °F 30.30 in Calm   3.5 mph 64 % 0.00 in 376.0 W/m2 OVC
16:45 61.1 °F 49.2 °F 30.30 in Calm     65 % 0.00 in 332.0 W/m2 OVC
16:50 61.0 °F 48.3 °F 30.30 in North 0.1 mph 3.5 mph 63 % 0.00 in 429.0 W/m2 OVC
16:55 61.1 °F 48.4 °F 30.30 in Calm   3.5 mph 63 % 0.00 in 464.0 W/m2 OVC
17:00 61.5 °F 48.8 °F 30.30 in Calm   1.2 mph 63 % 0.00 in 441.0 W/m2 OVC
17:06 61.1 °F 48.4 °F 30.30 in Calm   1.2 mph 63 % 0.00 in 316.0 W/m2 OVC
17:11 61.0 °F 48.7 °F 30.30 in Calm   1.2 mph 64 % 0.00 in 308.0 W/m2 OVC
17:16 60.6 °F 48.8 °F 30.31 in Calm   1.2 mph 65 % 0.00 in 272.0 W/m2 OVC
17:21 60.9 °F 48.6 °F 30.30 in Calm     64 % 0.00 in 246.0 W/m2 OVC
17:26 61.2 °F 48.9 °F 30.30 in Calm     64 % 0.00 in 239.0 W/m2 OVC
17:31 60.8 °F 48.1 °F 30.30 in Calm     63 % 0.00 in 190.0 W/m2 OVC
17:36 61.2 °F 48.5 °F 30.30 in Calm   2.3 mph 63 % 0.00 in 230.0 W/m2 OVC
17:41 61.1 °F 48.8 °F 30.29 in Calm   2.3 mph 64 % 0.00 in 197.0 W/m2 OVC
17:46 61.1 °F 48.8 °F 30.30 in WSW 0.5 mph 3.5 mph 64 % 0.00 in 146.0 W/m2 OVC
17:51 61.0 °F 48.3 °F 30.30 in WSW 0.4 mph 3.5 mph 63 % 0.00 in 137.0 W/m2 OVC
17:52 61.2 °F 48.5 °F 30.30 in Calm   3.5 mph 63 % 0.00 in 141.0 W/m2 OVC
17:57 61.2 °F 48.9 °F 30.30 in Calm   3.5 mph 64 % 0.00 in 185.0 W/m2 OVC
18:02 61.0 °F 48.7 °F 30.30 in Calm   2.3 mph 64 % 0.00 in 153.0 W/m2 OVC
18:07 60.9 °F 48.6 °F 30.29 in Calm     64 % 0.00 in 130.0 W/m2 OVC
18:12 60.7 °F 48.9 °F 30.30 in Calm     65 % 0.00 in 107.0 W/m2 OVC
18:18 60.9 °F 49.5 °F 30.29 in Calm     66 % 0.00 in 98.0 W/m2 OVC
18:23 60.9 °F 49.1 °F 30.30 in Calm     65 % 0.00 in 111.0 W/m2 OVC
18:27 61.1 °F 49.7 °F 30.29 in Calm     66 % 0.00 in 123.0 W/m2 OVC
18:32 61.2 °F 49.3 °F 30.29 in Calm     65 % 0.00 in 120.0 W/m2 OVC
18:37 61.0 °F 49.6 °F 30.29 in Calm     66 % 0.00 in 111.0 W/m2 OVC
18:43 61.1 °F 49.2 °F 30.29 in Calm   2.3 mph 65 % 0.00 in 111.0 W/m2 OVC
18:48 61.1 °F 49.7 °F 30.29 in Calm   2.3 mph 66 % 0.00 in 95.0 W/m2 OVC
18:53 61.0 °F 49.6 °F 30.29 in Calm   2.3 mph 66 % 0.00 in 95.0 W/m2 OVC
18:58 61.1 °F 49.7 °F 30.30 in Calm     66 % 0.00 in 79.0 W/m2 OVC
19:03 61.0 °F 50.0 °F 30.30 in Calm     67 % 0.00 in 58.0 W/m2 BKN
19:08 60.7 °F 49.7 °F 30.30 in Calm     67 % 0.00 in 54.0 W/m2 BKN
19:13 60.6 °F 50.0 °F 30.30 in Calm     68 % 0.00 in 54.0 W/m2 BKN
19:18 60.5 °F 49.9 °F 30.30 in Calm     68 % 0.00 in 51.0 W/m2 BKN
19:23 60.2 °F 49.6 °F 30.30 in Calm     68 % 0.00 in 46.0 W/m2 BKN
19:28 60.2 °F 49.6 °F 30.30 in Calm     68 % 0.00 in 39.0 W/m2 BKN
19:33 60.1 °F 49.5 °F 30.30 in Calm     68 % 0.00 in 33.0 W/m2 BKN
19:38 60.1 °F 49.9 °F 30.30 in Calm     69 % 0.00 in 32.0 W/m2 BKN
19:43 60.1 °F 49.9 °F 30.30 in Calm     69 % 0.00 in 26.0 W/m2 BKN
19:48 60.0 °F 49.8 °F 30.30 in Calm     69 % 0.00 in 26.0 W/m2 BKN
19:53 59.9 °F 49.7 °F 30.30 in Calm     69 % 0.00 in 19.0 W/m2 BKN
19:58 59.7 °F 49.9 °F 30.30 in Calm     70 % 0.00 in 18.0 W/m2 BKN
20:03 59.6 °F 49.8 °F 30.30 in Calm     70 % 0.00 in 12.0 W/m2 CLR
20:08 59.4 °F 50.0 °F 30.30 in Calm     71 % 0.00 in 9.0 W/m2 CLR
20:13 59.4 °F 50.0 °F 30.30 in Calm     71 % 0.00 in 5.0 W/m2 CLR
20:18 59.3 °F 49.9 °F 30.30 in Calm     71 % 0.00 in 0.0 W/m2 CLR
20:23 59.1 °F 50.1 °F 30.30 in Calm     72 % 0.00 in 0.0 W/m2 CLR
20:28 58.9 °F 50.3 °F 30.30 in Calm     73 % 0.00 in 0.0 W/m2 CLR
20:33 58.7 °F 50.1 °F 30.30 in Calm     73 % 0.00 in 0.0 W/m2 CLR
20:38 58.6 °F 50.3 °F 30.30 in Calm     74 % 0.00 in 0.0 W/m2 CLR
20:43 58.4 °F 50.1 °F 30.30 in Calm     74 % 0.00 in 0.0 W/m2 CLR
20:48 58.2 °F 50.3 °F 30.30 in Calm     75 % 0.00 in 0.0 W/m2 CLR
20:58 57.9 °F 50.4 °F 30.31 in Calm     76 % 0.00 in 0.0 W/m2 CLR
21:03 57.5 °F 50.3 °F 30.31 in Calm     77 % 0.00 in 0.0 W/m2 CLR
21:08 57.3 °F 50.5 °F 30.32 in Calm     78 % 0.00 in 0.0 W/m2 CLR
21:13 56.7 °F 49.9 °F 30.32 in Calm     78 % 0.00 in 0.0 W/m2 CLR
21:18 56.7 °F 50.3 °F 30.32 in Calm     79 % 0.00 in 0.0 W/m2 CLR
21:23 56.9 °F 50.8 °F 30.32 in Calm     80 % 0.00 in 0.0 W/m2 CLR
21:29 56.7 °F 50.6 °F 30.32 in Calm     80 % 0.00 in 0.0 W/m2 CLR
21:34 56.0 °F 49.9 °F 30.32 in Calm     80 % 0.00 in 0.0 W/m2 CLR
21:39 56.1 °F 50.3 °F 30.32 in Calm     81 % 0.00 in 0.0 W/m2 CLR
21:44 56.1 °F 50.3 °F 30.32 in Calm     81 % 0.00 in 0.0 W/m2 CLR
21:49 56.2 °F 50.4 °F 30.32 in Calm     81 % 0.00 in 0.0 W/m2 CLR
21:54 56.2 °F 50.4 °F 30.33 in Calm     81 % 0.00 in 0.0 W/m2 CLR
21:59 55.9 °F 50.2 °F 30.33 in Calm     81 % 0.00 in 0.0 W/m2 CLR
22:04 55.6 °F 50.2 °F 30.33 in Calm     82 % 0.00 in 0.0 W/m2 CLR
22:09 55.2 °F 50.1 °F 30.33 in Calm     83 % 0.00 in 0.0 W/m2 CLR
22:14 55.1 °F 50.0 °F 30.33 in Calm     83 % 0.00 in 0.0 W/m2 CLR
22:19 55.0 °F 50.3 °F 30.33 in Calm     84 % 0.00 in 0.0 W/m2 CLR
22:24 55.0 °F 50.3 °F 30.33 in Calm     84 % 0.00 in 0.0 W/m2 CLR
22:29 54.8 °F 50.1 °F 30.33 in Calm     84 % 0.00 in 0.0 W/m2 CLR
22:34 54.6 °F 50.2 °F 30.32 in Calm     85 % 0.00 in 0.0 W/m2 CLR
22:39 54.5 °F 50.1 °F 30.32 in Calm     85 % 0.00 in 0.0 W/m2 CLR
22:44 54.6 °F 50.2 °F 30.32 in Calm     85 % 0.00 in 0.0 W/m2 CLR
22:49 54.6 °F 50.2 °F 30.32 in Calm     85 % 0.00 in 0.0 W/m2 CLR
22:54 54.3 °F 49.9 °F 30.32 in Calm     85 % 0.00 in 0.0 W/m2 CLR
22:59 54.0 °F 49.6 °F 30.32 in Calm     85 % 0.00 in 0.0 W/m2 CLR
23:04 53.8 °F 49.7 °F 30.32 in Calm     86 % 0.00 in 0.0 W/m2 CLR
23:09 53.7 °F 49.6 °F 30.32 in Calm     86 % 0.00 in 0.0 W/m2 CLR
23:14 53.4 °F 49.6 °F 30.32 in Calm     87 % 0.00 in 0.0 W/m2 CLR
23:19 53.2 °F 49.4 °F 30.32 in Calm     87 % 0.00 in 0.0 W/m2 CLR
23:24 53.1 °F 49.3 °F 30.33 in Calm     87 % 0.00 in 0.0 W/m2 CLR
23:29 52.9 °F 49.1 °F 30.33 in Calm     87 % 0.00 in 0.0 W/m2 CLR
23:40 53.0 °F 49.5 °F 30.33 in Calm     88 % 0.00 in 0.0 W/m2 CLR
23:45 53.0 °F 49.5 °F 30.33 in Calm     88 % 0.00 in 0.0 W/m2 CLR
23:50 52.9 °F 49.4 °F 30.33 in Calm     88 % 0.00 in 0.0 W/m2 CLR
23:55 52.5 °F 49.0 °F 30.33 in Calm     88 % 0.00 in 0.0 W/m2 CLR
Air Products Campus Weather
Compliments of Weather Underground - 3.5 mb